Date_Time,Julian_Date,Latitude,Longitude,Instrument_Depth,Water_Temperature
(yyyy-mm-dd hh:mn:ss UTC),(JD),(+ deg. North),(+ deg. East),(m),(deg. C)
1984-08-27 17:30:00 UTC,2445940.229167,28.7467,-95.2267,0206,26.8000
1984-08-27 18:00:00 UTC,2445940.250000,28.7467,-95.2267,0206,26.8000
1984-08-27 18:30:00 UTC,2445940.270833,28.7467,-95.2267,0206,26.8000
1984-08-27 19:00:00 UTC,2445940.291667,28.7467,-95.2267,0206,26.7000
1984-08-27 19:30:00 UTC,2445940.312500,28.7467,-95.2267,0206,26.7000
1984-08-27 20:00:00 UTC,2445940.333333,28.7467,-95.2267,0206,26.7000
1984-08-27 20:30:00 UTC,2445940.354167,28.7467,-95.2267,0206,26.8000
1984-08-27 21:00:00 UTC,2445940.375000,28.7467,-95.2267,0206,26.8000
1984-08-27 21:30:00 UTC,2445940.395833,28.7467,-95.2267,0206,26.8000
1984-08-27 22:00:00 UTC,2445940.416667,28.7467,-95.2267,0206,26.8000
1984-08-27 22:30:00 UTC,2445940.437500,28.7467,-95.2267,0206,26.8000
1984-08-27 23:00:00 UTC,2445940.458333,28.7467,-95.2267,0206,26.8000
1984-08-27 23:30:00 UTC,2445940.479167,28.7467,-95.2267,0206,26.8000
1984-08-28 00:00:00 UTC,2445940.500000,28.7467,-95.2267,0206,26.8000
1984-08-28 00:30:00 UTC,2445940.520833,28.7467,-95.2267,0206,26.8000
1984-08-28 01:00:00 UTC,2445940.541667,28.7467,-95.2267,0206,26.8000
1984-08-28 01:30:00 UTC,2445940.562500,28.7467,-95.2267,0206,26.8000
1984-08-28 02:00:00 UTC,2445940.583333,28.7467,-95.2267,0206,26.8000
1984-08-28 02:30:00 UTC,2445940.604167,28.7467,-95.2267,0206,26.8000
1984-08-28 03:00:00 UTC,2445940.625000,28.7467,-95.2267,0206,26.8000
1984-08-28 03:30:00 UTC,2445940.645833,28.7467,-95.2267,0206,26.8000
1984-08-28 04:00:00 UTC,2445940.666667,28.7467,-95.2267,0206,26.8000
1984-08-28 04:30:00 UTC,2445940.687500,28.7467,-95.2267,0206,26.8000
1984-08-28 05:00:00 UTC,2445940.708333,28.7467,-95.2267,0206,26.8000
1984-08-28 05:30:00 UTC,2445940.729167,28.7467,-95.2267,0206,26.8000
1984-08-28 06:00:00 UTC,2445940.750000,28.7467,-95.2267,0206,26.8000
1984-08-28 06:30:00 UTC,2445940.770833,28.7467,-95.2267,0206,26.8000
1984-08-28 07:00:00 UTC,2445940.791667,28.7467,-95.2267,0206,26.8000
1984-08-28 07:30:00 UTC,2445940.812500,28.7467,-95.2267,0206,26.8000
1984-08-28 08:00:00 UTC,2445940.833333,28.7467,-95.2267,0206,26.8000
1984-08-28 08:30:00 UTC,2445940.854167,28.7467,-95.2267,0206,26.8000
1984-08-28 09:00:00 UTC,2445940.875000,28.7467,-95.2267,0206,26.8000
1984-08-28 09:30:00 UTC,2445940.895833,28.7467,-95.2267,0206,26.8000
1984-08-28 10:00:00 UTC,2445940.916667,28.7467,-95.2267,0206,26.8000
1984-08-28 10:30:00 UTC,2445940.937500,28.7467,-95.2267,0206,26.8000
1984-08-28 11:00:00 UTC,2445940.958333,28.7467,-95.2267,0206,26.8000
1984-08-28 11:30:00 UTC,2445940.979167,28.7467,-95.2267,0206,26.8000
1984-08-28 12:00:00 UTC,2445941.000000,28.7467,-95.2267,0206,26.8000
1984-08-28 12:30:00 UTC,2445941.020833,28.7467,-95.2267,0206,26.8000
1984-08-28 13:00:00 UTC,2445941.041667,28.7467,-95.2267,0206,26.8000
1984-08-28 13:30:00 UTC,2445941.062500,28.7467,-95.2267,0206,26.8000
1984-08-28 14:00:00 UTC,2445941.083333,28.7467,-95.2267,0206,26.8000
1984-08-28 14:30:00 UTC,2445941.104167,28.7467,-95.2267,0206,26.8000
1984-08-28 15:00:00 UTC,2445941.125000,28.7467,-95.2267,0206,26.8000
1984-08-28 15:30:00 UTC,2445941.145833,28.7467,-95.2267,0206,26.8000
1984-08-28 16:00:00 UTC,2445941.166667,28.7467,-95.2267,0206,26.8000
1984-08-28 16:30:00 UTC,2445941.187500,28.7467,-95.2267,0206,26.8000
1984-08-28 17:00:00 UTC,2445941.208333,28.7467,-95.2267,0206,26.8000
1984-08-28 17:30:00 UTC,2445941.229167,28.7467,-95.2267,0206,26.8000
1984-08-28 18:00:00 UTC,2445941.250000,28.7467,-95.2267,0206,26.8000
1984-08-28 18:30:00 UTC,2445941.270833,28.7467,-95.2267,0206,26.8000
1984-08-28 19:00:00 UTC,2445941.291667,28.7467,-95.2267,0206,26.8000
1984-08-28 19:30:00 UTC,2445941.312500,28.7467,-95.2267,0206,26.8000
1984-08-28 20:00:00 UTC,2445941.333333,28.7467,-95.2267,0206,26.8000
1984-08-28 20:30:00 UTC,2445941.354167,28.7467,-95.2267,0206,26.8000
1984-08-28 21:00:00 UTC,2445941.375000,28.7467,-95.2267,0206,26.8000
1984-08-28 21:30:00 UTC,2445941.395833,28.7467,-95.2267,0206,26.8000
1984-08-28 22:00:00 UTC,2445941.416667,28.7467,-95.2267,0206,26.8000
1984-08-28 22:30:00 UTC,2445941.437500,28.7467,-95.2267,0206,26.8000
1984-08-28 23:00:00 UTC,2445941.458333,28.7467,-95.2267,0206,26.7000
1984-08-28 23:30:00 UTC,2445941.479167,28.7467,-95.2267,0206,26.7000
1984-08-29 00:00:00 UTC,2445941.500000,28.7467,-95.2267,0206,26.7000
1984-08-29 00:30:00 UTC,2445941.520833,28.7467,-95.2267,0206,26.7000
1984-08-29 01:00:00 UTC,2445941.541667,28.7467,-95.2267,0206,26.7000
1984-08-29 01:30:00 UTC,2445941.562500,28.7467,-95.2267,0206,26.7000
1984-08-29 02:00:00 UTC,2445941.583333,28.7467,-95.2267,0206,26.7000
1984-08-29 02:30:00 UTC,2445941.604167,28.7467,-95.2267,0206,26.7000
1984-08-29 03:00:00 UTC,2445941.625000,28.7467,-95.2267,0206,26.7000
1984-08-29 03:30:00 UTC,2445941.645833,28.7467,-95.2267,0206,26.7000
1984-08-29 04:00:00 UTC,2445941.666667,28.7467,-95.2267,0206,26.7000
1984-08-29 04:30:00 UTC,2445941.687500,28.7467,-95.2267,0206,26.7000
1984-08-29 05:00:00 UTC,2445941.708333,28.7467,-95.2267,0206,26.7000
1984-08-29 05:30:00 UTC,2445941.729167,28.7467,-95.2267,0206,26.7000
1984-08-29 06:00:00 UTC,2445941.750000,28.7467,-95.2267,0206,26.8000
1984-08-29 06:30:00 UTC,2445941.770833,28.7467,-95.2267,0206,26.8000
1984-08-29 07:00:00 UTC,2445941.791667,28.7467,-95.2267,0206,26.8000
1984-08-29 07:30:00 UTC,2445941.812500,28.7467,-95.2267,0206,26.8000
1984-08-29 08:00:00 UTC,2445941.833333,28.7467,-95.2267,0206,26.8000
1984-08-29 08:30:00 UTC,2445941.854167,28.7467,-95.2267,0206,26.8000
1984-08-29 09:00:00 UTC,2445941.875000,28.7467,-95.2267,0206,26.8000
1984-08-29 09:30:00 UTC,2445941.895833,28.7467,-95.2267,0206,26.8000
1984-08-29 10:00:00 UTC,2445941.916667,28.7467,-95.2267,0206,26.8000
1984-08-29 10:30:00 UTC,2445941.937500,28.7467,-95.2267,0206,26.8000
1984-08-29 11:00:00 UTC,2445941.958333,28.7467,-95.2267,0206,26.8000
1984-08-29 11:30:00 UTC,2445941.979167,28.7467,-95.2267,0206,26.8000
1984-08-29 12:00:00 UTC,2445942.000000,28.7467,-95.2267,0206,26.8000
1984-08-29 12:30:00 UTC,2445942.020833,28.7467,-95.2267,0206,26.8000
1984-08-29 13:00:00 UTC,2445942.041667,28.7467,-95.2267,0206,26.8000
1984-08-29 13:30:00 UTC,2445942.062500,28.7467,-95.2267,0206,26.8000
1984-08-29 14:00:00 UTC,2445942.083333,28.7467,-95.2267,0206,26.7000
1984-08-29 14:30:00 UTC,2445942.104167,28.7467,-95.2267,0206,26.7000
1984-08-29 15:00:00 UTC,2445942.125000,28.7467,-95.2267,0206,26.7000
1984-08-29 15:30:00 UTC,2445942.145833,28.7467,-95.2267,0206,26.7000
1984-08-29 16:00:00 UTC,2445942.166667,28.7467,-95.2267,0206,26.7000
1984-08-29 16:30:00 UTC,2445942.187500,28.7467,-95.2267,0206,26.7000
1984-08-29 17:00:00 UTC,2445942.208333,28.7467,-95.2267,0206,26.7000
1984-08-29 17:30:00 UTC,2445942.229167,28.7467,-95.2267,0206,26.7000
1984-08-29 18:00:00 UTC,2445942.250000,28.7467,-95.2267,0206,26.7000
1984-08-29 18:30:00 UTC,2445942.270833,28.7467,-95.2267,0206,26.7000
1984-08-29 19:00:00 UTC,2445942.291667,28.7467,-95.2267,0206,26.7000
1984-08-29 19:30:00 UTC,2445942.312500,28.7467,-95.2267,0206,26.7000
1984-08-29 20:00:00 UTC,2445942.333333,28.7467,-95.2267,0206,26.7000
1984-08-29 20:30:00 UTC,2445942.354167,28.7467,-95.2267,0206,26.7000
1984-08-29 21:00:00 UTC,2445942.375000,28.7467,-95.2267,0206,26.7000
1984-08-29 21:30:00 UTC,2445942.395833,28.7467,-95.2267,0206,26.8000
1984-08-29 22:00:00 UTC,2445942.416667,28.7467,-95.2267,0206,26.8000
1984-08-29 22:30:00 UTC,2445942.437500,28.7467,-95.2267,0206,26.8000
1984-08-29 23:00:00 UTC,2445942.458333,28.7467,-95.2267,0206,26.8000
1984-08-29 23:30:00 UTC,2445942.479167,28.7467,-95.2267,0206,26.8000
1984-08-30 00:00:00 UTC,2445942.500000,28.7467,-95.2267,0206,26.8000
1984-08-30 00:30:00 UTC,2445942.520833,28.7467,-95.2267,0206,26.8000
1984-08-30 01:00:00 UTC,2445942.541667,28.7467,-95.2267,0206,26.8000
1984-08-30 01:30:00 UTC,2445942.562500,28.7467,-95.2267,0206,26.8000
1984-08-30 02:00:00 UTC,2445942.583333,28.7467,-95.2267,0206,26.8000
1984-08-30 02:30:00 UTC,2445942.604167,28.7467,-95.2267,0206,26.8000
1984-08-30 03:00:00 UTC,2445942.625000,28.7467,-95.2267,0206,26.8000
1984-08-30 03:30:00 UTC,2445942.645833,28.7467,-95.2267,0206,26.8000
1984-08-30 04:00:00 UTC,2445942.666667,28.7467,-95.2267,0206,26.8000
1984-08-30 04:30:00 UTC,2445942.687500,28.7467,-95.2267,0206,26.9000
1984-08-30 05:00:00 UTC,2445942.708333,28.7467,-95.2267,0206,26.9000
1984-08-30 05:30:00 UTC,2445942.729167,28.7467,-95.2267,0206,26.9000
1984-08-30 06:00:00 UTC,2445942.750000,28.7467,-95.2267,0206,26.9000
1984-08-30 06:30:00 UTC,2445942.770833,28.7467,-95.2267,0206,26.9000
1984-08-30 07:00:00 UTC,2445942.791667,28.7467,-95.2267,0206,26.9000
1984-08-30 07:30:00 UTC,2445942.812500,28.7467,-95.2267,0206,26.9000
1984-08-30 08:00:00 UTC,2445942.833333,28.7467,-95.2267,0206,27.0000
1984-08-30 08:30:00 UTC,2445942.854167,28.7467,-95.2267,0206,27.0000
1984-08-30 09:00:00 UTC,2445942.875000,28.7467,-95.2267,0206,27.0000
1984-08-30 09:30:00 UTC,2445942.895833,28.7467,-95.2267,0206,27.1000
1984-08-30 10:00:00 UTC,2445942.916667,28.7467,-95.2267,0206,27.1000
1984-08-30 10:30:00 UTC,2445942.937500,28.7467,-95.2267,0206,27.1000
1984-08-30 11:00:00 UTC,2445942.958333,28.7467,-95.2267,0206,27.1000
1984-08-30 11:30:00 UTC,2445942.979167,28.7467,-95.2267,0206,27.1000
1984-08-30 12:00:00 UTC,2445943.000000,28.7467,-95.2267,0206,27.1000
1984-08-30 12:30:00 UTC,2445943.020833,28.7467,-95.2267,0206,27.1000
1984-08-30 13:00:00 UTC,2445943.041667,28.7467,-95.2267,0206,27.0000
1984-08-30 13:30:00 UTC,2445943.062500,28.7467,-95.2267,0206,27.1000
1984-08-30 14:00:00 UTC,2445943.083333,28.7467,-95.2267,0206,27.1000
1984-08-30 14:30:00 UTC,2445943.104167,28.7467,-95.2267,0206,27.1000
1984-08-30 15:00:00 UTC,2445943.125000,28.7467,-95.2267,0206,27.0000
1984-08-30 15:30:00 UTC,2445943.145833,28.7467,-95.2267,0206,27.0000
1984-08-30 16:00:00 UTC,2445943.166667,28.7467,-95.2267,0206,27.0000
1984-08-30 16:30:00 UTC,2445943.187500,28.7467,-95.2267,0206,27.0000
1984-08-30 17:00:00 UTC,2445943.208333,28.7467,-95.2267,0206,27.0000
1984-08-30 17:30:00 UTC,2445943.229167,28.7467,-95.2267,0206,27.0000
1984-08-30 18:00:00 UTC,2445943.250000,28.7467,-95.2267,0206,27.0000
1984-08-30 18:30:00 UTC,2445943.270833,28.7467,-95.2267,0206,27.0000
1984-08-30 19:00:00 UTC,2445943.291667,28.7467,-95.2267,0206,27.0000
1984-08-30 19:30:00 UTC,2445943.312500,28.7467,-95.2267,0206,27.0000
1984-08-30 20:00:00 UTC,2445943.333333,28.7467,-95.2267,0206,27.0000
1984-08-30 20:30:00 UTC,2445943.354167,28.7467,-95.2267,0206,27.0000
1984-08-30 21:00:00 UTC,2445943.375000,28.7467,-95.2267,0206,27.0000
1984-08-30 21:30:00 UTC,2445943.395833,28.7467,-95.2267,0206,27.1000
1984-08-30 22:00:00 UTC,2445943.416667,28.7467,-95.2267,0206,27.1000
1984-08-30 22:30:00 UTC,2445943.437500,28.7467,-95.2267,0206,27.1000
1984-08-30 23:00:00 UTC,2445943.458333,28.7467,-95.2267,0206,27.1000
1984-08-30 23:30:00 UTC,2445943.479167,28.7467,-95.2267,0206,27.2000
1984-08-31 00:00:00 UTC,2445943.500000,28.7467,-95.2267,0206,27.2000
1984-08-31 00:30:00 UTC,2445943.520833,28.7467,-95.2267,0206,27.2000
1984-08-31 01:00:00 UTC,2445943.541667,28.7467,-95.2267,0206,27.2000
1984-08-31 01:30:00 UTC,2445943.562500,28.7467,-95.2267,0206,27.2000
1984-08-31 02:00:00 UTC,2445943.583333,28.7467,-95.2267,0206,27.2000
1984-08-31 02:30:00 UTC,2445943.604167,28.7467,-95.2267,0206,27.2000
1984-08-31 03:00:00 UTC,2445943.625000,28.7467,-95.2267,0206,27.2000
1984-08-31 03:30:00 UTC,2445943.645833,28.7467,-95.2267,0206,27.1000
1984-08-31 04:00:00 UTC,2445943.666667,28.7467,-95.2267,0206,27.1000
1984-08-31 04:30:00 UTC,2445943.687500,28.7467,-95.2267,0206,27.2000
1984-08-31 05:00:00 UTC,2445943.708333,28.7467,-95.2267,0206,27.2000
1984-08-31 05:30:00 UTC,2445943.729167,28.7467,-95.2267,0206,27.3000
1984-08-31 06:00:00 UTC,2445943.750000,28.7467,-95.2267,0206,27.3000
1984-08-31 06:30:00 UTC,2445943.770833,28.7467,-95.2267,0206,27.3000
1984-08-31 07:00:00 UTC,2445943.791667,28.7467,-95.2267,0206,27.3000
1984-08-31 07:30:00 UTC,2445943.812500,28.7467,-95.2267,0206,27.4000
1984-08-31 08:00:00 UTC,2445943.833333,28.7467,-95.2267,0206,27.4000
1984-08-31 08:30:00 UTC,2445943.854167,28.7467,-95.2267,0206,27.4000
1984-08-31 09:00:00 UTC,2445943.875000,28.7467,-95.2267,0206,27.4000
1984-08-31 09:30:00 UTC,2445943.895833,28.7467,-95.2267,0206,27.4000
1984-08-31 10:00:00 UTC,2445943.916667,28.7467,-95.2267,0206,27.4000
1984-08-31 10:30:00 UTC,2445943.937500,28.7467,-95.2267,0206,27.4000
1984-08-31 11:00:00 UTC,2445943.958333,28.7467,-95.2267,0206,27.5000
1984-08-31 11:30:00 UTC,2445943.979167,28.7467,-95.2267,0206,27.4000
1984-08-31 12:00:00 UTC,2445944.000000,28.7467,-95.2267,0206,27.4000
1984-08-31 12:30:00 UTC,2445944.020833,28.7467,-95.2267,0206,27.4000
1984-08-31 13:00:00 UTC,2445944.041667,28.7467,-95.2267,0206,27.5000
1984-08-31 13:30:00 UTC,2445944.062500,28.7467,-95.2267,0206,27.5000
1984-08-31 14:00:00 UTC,2445944.083333,28.7467,-95.2267,0206,27.4000
1984-08-31 14:30:00 UTC,2445944.104167,28.7467,-95.2267,0206,27.4000
1984-08-31 15:00:00 UTC,2445944.125000,28.7467,-95.2267,0206,27.4000
1984-08-31 15:30:00 UTC,2445944.145833,28.7467,-95.2267,0206,27.4000
1984-08-31 16:00:00 UTC,2445944.166667,28.7467,-95.2267,0206,27.4000
1984-08-31 16:30:00 UTC,2445944.187500,28.7467,-95.2267,0206,27.4000
1984-08-31 17:00:00 UTC,2445944.208333,28.7467,-95.2267,0206,27.4000
1984-08-31 17:30:00 UTC,2445944.229167,28.7467,-95.2267,0206,27.3000
1984-08-31 18:00:00 UTC,2445944.250000,28.7467,-95.2267,0206,27.3000
1984-08-31 18:30:00 UTC,2445944.270833,28.7467,-95.2267,0206,27.3000
1984-08-31 19:00:00 UTC,2445944.291667,28.7467,-95.2267,0206,27.3000
1984-08-31 19:30:00 UTC,2445944.312500,28.7467,-95.2267,0206,27.2000
1984-08-31 20:00:00 UTC,2445944.333333,28.7467,-95.2267,0206,27.2000
1984-08-31 20:30:00 UTC,2445944.354167,28.7467,-95.2267,0206,27.2000
1984-08-31 21:00:00 UTC,2445944.375000,28.7467,-95.2267,0206,27.2000
1984-08-31 21:30:00 UTC,2445944.395833,28.7467,-95.2267,0206,27.2000
1984-08-31 22:00:00 UTC,2445944.416667,28.7467,-95.2267,0206,27.2000
1984-08-31 22:30:00 UTC,2445944.437500,28.7467,-95.2267,0206,27.2000
1984-08-31 23:00:00 UTC,2445944.458333,28.7467,-95.2267,0206,27.2000
1984-08-31 23:30:00 UTC,2445944.479167,28.7467,-95.2267,0206,27.2000
1984-09-01 00:00:00 UTC,2445944.500000,28.7467,-95.2267,0206,27.2000
1984-09-01 00:30:00 UTC,2445944.520833,28.7467,-95.2267,0206,27.2000
1984-09-01 01:00:00 UTC,2445944.541667,28.7467,-95.2267,0206,27.1000
1984-09-01 01:30:00 UTC,2445944.562500,28.7467,-95.2267,0206,27.1000
1984-09-01 02:00:00 UTC,2445944.583333,28.7467,-95.2267,0206,27.1000
1984-09-01 02:30:00 UTC,2445944.604167,28.7467,-95.2267,0206,27.1000
1984-09-01 03:00:00 UTC,2445944.625000,28.7467,-95.2267,0206,27.1000
1984-09-01 03:30:00 UTC,2445944.645833,28.7467,-95.2267,0206,27.1000
1984-09-01 04:00:00 UTC,2445944.666667,28.7467,-95.2267,0206,27.1000
1984-09-01 04:30:00 UTC,2445944.687500,28.7467,-95.2267,0206,27.1000
1984-09-01 05:00:00 UTC,2445944.708333,28.7467,-95.2267,0206,27.1000
1984-09-01 05:30:00 UTC,2445944.729167,28.7467,-95.2267,0206,27.1000
1984-09-01 06:00:00 UTC,2445944.750000,28.7467,-95.2267,0206,27.1000
1984-09-01 06:30:00 UTC,2445944.770833,28.7467,-95.2267,0206,27.1000
1984-09-01 07:00:00 UTC,2445944.791667,28.7467,-95.2267,0206,27.2000
1984-09-01 07:30:00 UTC,2445944.812500,28.7467,-95.2267,0206,27.2000
1984-09-01 08:00:00 UTC,2445944.833333,28.7467,-95.2267,0206,27.2000
1984-09-01 08:30:00 UTC,2445944.854167,28.7467,-95.2267,0206,27.2000
1984-09-01 09:00:00 UTC,2445944.875000,28.7467,-95.2267,0206,27.2000
1984-09-01 09:30:00 UTC,2445944.895833,28.7467,-95.2267,0206,27.2000
1984-09-01 10:00:00 UTC,2445944.916667,28.7467,-95.2267,0206,27.2000
1984-09-01 10:30:00 UTC,2445944.937500,28.7467,-95.2267,0206,27.2000
1984-09-01 11:00:00 UTC,2445944.958333,28.7467,-95.2267,0206,27.2000
1984-09-01 11:30:00 UTC,2445944.979167,28.7467,-95.2267,0206,27.2000
1984-09-01 12:00:00 UTC,2445945.000000,28.7467,-95.2267,0206,27.2000
1984-09-01 12:30:00 UTC,2445945.020833,28.7467,-95.2267,0206,27.1000
1984-09-01 13:00:00 UTC,2445945.041667,28.7467,-95.2267,0206,27.1000
1984-09-01 13:30:00 UTC,2445945.062500,28.7467,-95.2267,0206,27.1000
1984-09-01 14:00:00 UTC,2445945.083333,28.7467,-95.2267,0206,27.0000
1984-09-01 14:30:00 UTC,2445945.104167,28.7467,-95.2267,0206,27.0000
1984-09-01 15:00:00 UTC,2445945.125000,28.7467,-95.2267,0206,27.0000
1984-09-01 15:30:00 UTC,2445945.145833,28.7467,-95.2267,0206,26.9000
1984-09-01 16:00:00 UTC,2445945.166667,28.7467,-95.2267,0206,26.9000
1984-09-01 16:30:00 UTC,2445945.187500,28.7467,-95.2267,0206,26.9000
1984-09-01 17:00:00 UTC,2445945.208333,28.7467,-95.2267,0206,26.9000
1984-09-01 17:30:00 UTC,2445945.229167,28.7467,-95.2267,0206,26.9000
1984-09-01 18:00:00 UTC,2445945.250000,28.7467,-95.2267,0206,26.9000
1984-09-01 18:30:00 UTC,2445945.270833,28.7467,-95.2267,0206,26.9000
1984-09-01 19:00:00 UTC,2445945.291667,28.7467,-95.2267,0206,26.9000
1984-09-01 19:30:00 UTC,2445945.312500,28.7467,-95.2267,0206,26.9000
1984-09-01 20:00:00 UTC,2445945.333333,28.7467,-95.2267,0206,26.9000
1984-09-01 20:30:00 UTC,2445945.354167,28.7467,-95.2267,0206,26.9000
1984-09-01 21:00:00 UTC,2445945.375000,28.7467,-95.2267,0206,26.9000
1984-09-01 21:30:00 UTC,2445945.395833,28.7467,-95.2267,0206,26.9000
1984-09-01 22:00:00 UTC,2445945.416667,28.7467,-95.2267,0206,27.0000
1984-09-01 22:30:00 UTC,2445945.437500,28.7467,-95.2267,0206,27.0000
1984-09-01 23:00:00 UTC,2445945.458333,28.7467,-95.2267,0206,27.0000
1984-09-01 23:30:00 UTC,2445945.479167,28.7467,-95.2267,0206,27.0000
1984-09-02 00:00:00 UTC,2445945.500000,28.7467,-95.2267,0206,27.1000
1984-09-02 00:30:00 UTC,2445945.520833,28.7467,-95.2267,0206,27.1000
1984-09-02 01:00:00 UTC,2445945.541667,28.7467,-95.2267,0206,27.1000
1984-09-02 01:30:00 UTC,2445945.562500,28.7467,-95.2267,0206,27.2000
1984-09-02 02:00:00 UTC,2445945.583333,28.7467,-95.2267,0206,27.2000
1984-09-02 02:30:00 UTC,2445945.604167,28.7467,-95.2267,0206,27.3000
1984-09-02 03:00:00 UTC,2445945.625000,28.7467,-95.2267,0206,27.3000
1984-09-02 03:30:00 UTC,2445945.645833,28.7467,-95.2267,0206,27.3000
1984-09-02 04:00:00 UTC,2445945.666667,28.7467,-95.2267,0206,27.4000
1984-09-02 04:30:00 UTC,2445945.687500,28.7467,-95.2267,0206,27.4000
1984-09-02 05:00:00 UTC,2445945.708333,28.7467,-95.2267,0206,27.5000
1984-09-02 05:30:00 UTC,2445945.729167,28.7467,-95.2267,0206,27.5000
1984-09-02 06:00:00 UTC,2445945.750000,28.7467,-95.2267,0206,27.5000
1984-09-02 06:30:00 UTC,2445945.770833,28.7467,-95.2267,0206,27.5000
1984-09-02 07:00:00 UTC,2445945.791667,28.7467,-95.2267,0206,27.5000
1984-09-02 07:30:00 UTC,2445945.812500,28.7467,-95.2267,0206,27.5000
1984-09-02 08:00:00 UTC,2445945.833333,28.7467,-95.2267,0206,27.5000
1984-09-02 08:30:00 UTC,2445945.854167,28.7467,-95.2267,0206,27.5000
1984-09-02 09:00:00 UTC,2445945.875000,28.7467,-95.2267,0206,27.6000
1984-09-02 09:30:00 UTC,2445945.895833,28.7467,-95.2267,0206,27.6000
1984-09-02 10:00:00 UTC,2445945.916667,28.7467,-95.2267,0206,27.6000
1984-09-02 10:30:00 UTC,2445945.937500,28.7467,-95.2267,0206,27.6000
1984-09-02 11:00:00 UTC,2445945.958333,28.7467,-95.2267,0206,27.6000
1984-09-02 11:30:00 UTC,2445945.979167,28.7467,-95.2267,0206,27.6000
1984-09-02 12:00:00 UTC,2445946.000000,28.7467,-95.2267,0206,27.6000
1984-09-02 12:30:00 UTC,2445946.020833,28.7467,-95.2267,0206,27.7000
1984-09-02 13:00:00 UTC,2445946.041667,28.7467,-95.2267,0206,27.7000
1984-09-02 13:30:00 UTC,2445946.062500,28.7467,-95.2267,0206,27.7000
1984-09-02 14:00:00 UTC,2445946.083333,28.7467,-95.2267,0206,27.8000
1984-09-02 14:30:00 UTC,2445946.104167,28.7467,-95.2267,0206,27.8000
1984-09-02 15:00:00 UTC,2445946.125000,28.7467,-95.2267,0206,27.8000
1984-09-02 15:30:00 UTC,2445946.145833,28.7467,-95.2267,0206,27.8000
1984-09-02 16:00:00 UTC,2445946.166667,28.7467,-95.2267,0206,27.9000
1984-09-02 16:30:00 UTC,2445946.187500,28.7467,-95.2267,0206,27.9000
1984-09-02 17:00:00 UTC,2445946.208333,28.7467,-95.2267,0206,27.9000
1984-09-02 17:30:00 UTC,2445946.229167,28.7467,-95.2267,0206,27.9000
1984-09-02 18:00:00 UTC,2445946.250000,28.7467,-95.2267,0206,28.0000
1984-09-02 18:30:00 UTC,2445946.270833,28.7467,-95.2267,0206,28.0000
1984-09-02 19:00:00 UTC,2445946.291667,28.7467,-95.2267,0206,28.0000
1984-09-02 19:30:00 UTC,2445946.312500,28.7467,-95.2267,0206,28.0000
1984-09-02 20:00:00 UTC,2445946.333333,28.7467,-95.2267,0206,28.0000
1984-09-02 20:30:00 UTC,2445946.354167,28.7467,-95.2267,0206,28.0000
1984-09-02 21:00:00 UTC,2445946.375000,28.7467,-95.2267,0206,28.0000
1984-09-02 21:30:00 UTC,2445946.395833,28.7467,-95.2267,0206,28.0000
1984-09-02 22:00:00 UTC,2445946.416667,28.7467,-95.2267,0206,28.0000
1984-09-02 22:30:00 UTC,2445946.437500,28.7467,-95.2267,0206,28.0000
1984-09-02 23:00:00 UTC,2445946.458333,28.7467,-95.2267,0206,28.0000
1984-09-02 23:30:00 UTC,2445946.479167,28.7467,-95.2267,0206,28.0000
1984-09-03 00:00:00 UTC,2445946.500000,28.7467,-95.2267,0206,28.0000
1984-09-03 00:30:00 UTC,2445946.520833,28.7467,-95.2267,0206,28.0000
1984-09-03 01:00:00 UTC,2445946.541667,28.7467,-95.2267,0206,28.0000
1984-09-03 01:30:00 UTC,2445946.562500,28.7467,-95.2267,0206,28.0000
1984-09-03 02:00:00 UTC,2445946.583333,28.7467,-95.2267,0206,28.0000
1984-09-03 02:30:00 UTC,2445946.604167,28.7467,-95.2267,0206,28.0000
1984-09-03 03:00:00 UTC,2445946.625000,28.7467,-95.2267,0206,28.0000
1984-09-03 03:30:00 UTC,2445946.645833,28.7467,-95.2267,0206,28.0000
1984-09-03 04:00:00 UTC,2445946.666667,28.7467,-95.2267,0206,28.0000
1984-09-03 04:30:00 UTC,2445946.687500,28.7467,-95.2267,0206,28.0000
1984-09-03 05:00:00 UTC,2445946.708333,28.7467,-95.2267,0206,28.0000
1984-09-03 05:30:00 UTC,2445946.729167,28.7467,-95.2267,0206,28.0000
1984-09-03 06:00:00 UTC,2445946.750000,28.7467,-95.2267,0206,28.0000
1984-09-03 06:30:00 UTC,2445946.770833,28.7467,-95.2267,0206,28.0000
1984-09-03 07:00:00 UTC,2445946.791667,28.7467,-95.2267,0206,28.0000
1984-09-03 07:30:00 UTC,2445946.812500,28.7467,-95.2267,0206,28.0000
1984-09-03 08:00:00 UTC,2445946.833333,28.7467,-95.2267,0206,28.0000
1984-09-03 08:30:00 UTC,2445946.854167,28.7467,-95.2267,0206,28.0000
1984-09-03 09:00:00 UTC,2445946.875000,28.7467,-95.2267,0206,28.0000
1984-09-03 09:30:00 UTC,2445946.895833,28.7467,-95.2267,0206,28.0000
1984-09-03 10:00:00 UTC,2445946.916667,28.7467,-95.2267,0206,28.0000
1984-09-03 10:30:00 UTC,2445946.937500,28.7467,-95.2267,0206,28.0000
1984-09-03 11:00:00 UTC,2445946.958333,28.7467,-95.2267,0206,28.0000
1984-09-03 11:30:00 UTC,2445946.979167,28.7467,-95.2267,0206,28.0000
1984-09-03 12:00:00 UTC,2445947.000000,28.7467,-95.2267,0206,28.0000
1984-09-03 12:30:00 UTC,2445947.020833,28.7467,-95.2267,0206,28.0000
1984-09-03 13:00:00 UTC,2445947.041667,28.7467,-95.2267,0206,27.9000
1984-09-03 13:30:00 UTC,2445947.062500,28.7467,-95.2267,0206,27.9000
1984-09-03 14:00:00 UTC,2445947.083333,28.7467,-95.2267,0206,27.9000
1984-09-03 14:30:00 UTC,2445947.104167,28.7467,-95.2267,0206,27.9000
1984-09-03 15:00:00 UTC,2445947.125000,28.7467,-95.2267,0206,27.9000
1984-09-03 15:30:00 UTC,2445947.145833,28.7467,-95.2267,0206,27.9000
1984-09-03 16:00:00 UTC,2445947.166667,28.7467,-95.2267,0206,27.9000
1984-09-03 16:30:00 UTC,2445947.187500,28.7467,-95.2267,0206,27.9000
1984-09-03 17:00:00 UTC,2445947.208333,28.7467,-95.2267,0206,27.9000
1984-09-03 17:30:00 UTC,2445947.229167,28.7467,-95.2267,0206,27.9000
1984-09-03 18:00:00 UTC,2445947.250000,28.7467,-95.2267,0206,27.9000
1984-09-03 18:30:00 UTC,2445947.270833,28.7467,-95.2267,0206,27.9000
1984-09-03 19:00:00 UTC,2445947.291667,28.7467,-95.2267,0206,27.9000
1984-09-03 19:30:00 UTC,2445947.312500,28.7467,-95.2267,0206,27.9000
1984-09-03 20:00:00 UTC,2445947.333333,28.7467,-95.2267,0206,27.9000
1984-09-03 20:30:00 UTC,2445947.354167,28.7467,-95.2267,0206,27.9000
1984-09-03 21:00:00 UTC,2445947.375000,28.7467,-95.2267,0206,27.9000
1984-09-03 21:30:00 UTC,2445947.395833,28.7467,-95.2267,0206,27.8000